Beaufort MCAS, SC

11:14 PM EST on December 17, 2017 (GMT -0500)
Beaufort Marine Corps Air Station

Weather History for KNBC - April, 2012

Change the Weather History Date:

Thursday, April 12, 2012

  Actual Average Record
Temperature  
Mean Temperature 55 °F -  
Max Temperature 68 °F 74 °F 87 °F (1965)
Min Temperature 44 °F 52 °F 37 °F (1968)
Degree Days  
Heating Degree Days 10    
Growing Degree Days 5 (Base 50)    
Moisture  
Dew Point 35 °F    
Average Humidity 49    
Maximum Humidity 83    
Minimum Humidity 29    
Precipitation  
Precipitation 0.00 in - - ()
Sea Level Pressure  
Sea Level Pressure 30.18 in    
Wind  
Wind Speed 11 mph (ENE)    
Max Wind Speed 22 mph    
Max Gust Speed 29 mph    
Visibility 10 miles    
Events      
Averages and records for this station are not official NWS values.
T = Trace of Precipitation, MM = Missing Value Source: NWS Daily Summary

Daily Weather History Graph

Daily Weather History Graph

Search for Another Location

Airport or City:

Trip Planner

Search our weather history database for the weather conditions in past years. The results will help you decide how hot, cold, wet, or windy it might be!

Date:

Astronomy

Apr. 12, 2012 Rise Set
Actual Time 6:56 AM EDT 7:50 PM EDT
Civil Twilight 6:31 AM EDT 8:16 PM EDT
Nautical Twilight 6:01 AM EDT 8:45 PM EDT
Astronomical Twilight 5:31 AM EDT 9:16 PM EDT
Moon 1:26 AM EDT (4/12) 12:00 PM EDT (4/12)
Length of Visible Light 13h 44m
Length of Day
12h 54m
Waning Gibbous, 59% of the Moon is Illuminated
Apr 12
Waning Gibbous
Apr 13
Last Quarter
Apr 21
New
Apr 29
First Quarter
May 5
Full

Hourly Weather History & Observations

Time (EDT) Temp. Windchill Dew Point Humidity Pressure Visibility Wind Dir Wind Speed Gust Speed Precip Events Conditions
12:56 AM 52.0 °F - 37.9 °F 59% 30.07 in 10.0 mi NNE 21.9 mph 28.8 mph N/A   Clear
1:56 AM 53.1 °F - 30.0 °F 41% 30.12 in 10.0 mi NE 18.4 mph 24.2 mph N/A   Clear
2:56 AM 51.1 °F - 28.9 °F 43% 30.13 in 10.0 mi ENE 13.8 mph 24.2 mph N/A   Clear
3:56 AM 48.9 °F - 28.9 °F 46% 30.14 in 10.0 mi ENE 8.1 mph 16.1 mph N/A   Clear
4:56 AM 46.9 °F - 30.0 °F 52% 30.16 in 10.0 mi NNE 10.4 mph - N/A   Clear
5:56 AM 45.0 °F 40.1 °F 30.0 °F 56% 30.18 in 10.0 mi NE 9.2 mph - N/A   Clear
6:56 AM 44.1 °F 39.0 °F 28.9 °F 55% 30.19 in 10.0 mi NE 9.2 mph - N/A   Clear
7:56 AM 46.0 °F 40.6 °F 28.9 °F 51% 30.21 in 10.0 mi NNE 11.5 mph - N/A   Clear
8:56 AM 50.0 °F - 28.9 °F 44% 30.23 in 10.0 mi ENE 12.7 mph - N/A   Clear
9:56 AM 53.1 °F - 28.0 °F 38% 30.23 in 10.0 mi ENE 10.4 mph - N/A   Clear
10:56 AM 57.0 °F - 28.9 °F 34% 30.25 in 10.0 mi ENE 6.9 mph 16.1 mph N/A   Clear
11:56 AM 59.0 °F - 30.0 °F 33% 30.24 in 10.0 mi NNE 8.1 mph - N/A   Clear
12:56 PM 61.0 °F - 30.0 °F 31% 30.22 in 10.0 mi East 5.8 mph - N/A   Clear
1:56 PM 63.0 °F - 32.0 °F 31% 30.20 in 10.0 mi NE 4.6 mph - N/A   Clear
2:56 PM 66.0 °F - 34.0 °F 30% 30.18 in 10.0 mi Calm Calm - N/A   Clear
3:56 PM 66.0 °F - 33.1 °F 29% 30.16 in 10.0 mi Calm Calm - N/A   Clear
4:56 PM 66.0 °F - 37.9 °F 36% 30.15 in 10.0 mi South 3.5 mph - N/A   Clear
5:56 PM 64.9 °F - 41.0 °F 42% 30.14 in 10.0 mi SSE 4.6 mph - N/A   Clear
6:56 PM 63.0 °F - 44.1 °F 50% 30.15 in 10.0 mi SSE 3.5 mph - N/A   Clear
7:56 PM 59.0 °F - 44.1 °F 58% 30.16 in 10.0 mi Calm Calm - N/A   Clear
8:56 PM 55.9 °F - 44.1 °F 64% 30.18 in 10.0 mi Calm Calm - N/A   Clear
9:56 PM 51.1 °F - 45.0 °F 80% 30.19 in 10.0 mi Calm Calm - N/A   Clear
10:56 PM 50.0 °F - 45.0 °F 83% 30.19 in 10.0 mi Calm Calm - N/A   Clear
11:56 PM 50.0 °F - 44.1 °F 80% 30.20 in 10.0 mi Calm Calm - N/A   Clear